Theta_e
297 291 288 291 295 295 293 290 289 291 296 294 301 300 301 305 306 304 304 303 303 301 300 302 304 307 308 309 310 317 312 308 305 302 301 300 298 299 300 300 299 298 298 299
289 287 293 295 295 294 293 287 285 288 293 292 295 299 302 303 304 305 303 302 301 298 299 300 303 306 302 301 303 310 307 306 305 304 301 300 299 299 298 298 297 296 296 296
285 289 295 293 292 291 291 288 286 286 288 293 292 294 298 301 304 306 306 304 301 298 299 299 301 302 300 299 301 303 303 301 302 302 301 299 298 298 296 295 295 295 296 295
287 292 291 290 290 291 287 294 290 287 286 284 288 283 293 296 297 300 302 303 301 300 299 298 299 298 297 297 298 299 300 300 301 303 300 298 297 293 293 294 294 295 295 294
286 289 289 287 290 292 288 296 292 288 285 284 285 283 292 295 293 294 299 299 299 299 298 297 296 295 296 296 295 297 299 300 302 301 302 297 295 293 293 293 293 293 293 293
289 294 292 290 293 294 295 293 292 289 286 279 285 284 288 290 294 295 297 299 296 295 295 294 294 294 294 296 295 296 296 296 298 299 297 296 293 293 293 293 292 292 292 291
286 287 292 293 288 292 292 288 281 279 278 278 287 284 287 296 298 298 297 297 294 294 294 293 293 293 292 293 294 294 294 294 295 296 295 293 293 294 293 292 291 290 289 289
277 275 287 293 289 285 287 287 282 277 277 281 287 283 290 296 297 300 300 299 295 294 294 294 294 294 293 293 294 293 293 292 292 292 291 291 291 292 290 290 290 289 288 288
277 278 291 291 292 290 285 283 291 283 282 281 284 287 293 293 296 299 297 294 294 293 293 292 293 293 293 293 292 292 291 291 291 291 291 290 290 289 289 289 289 288 288 289
284 276 286 290 292 291 288 291 282 284 276 275 280 283 284 288 292 295 293 292 293 292 291 291 292 292 292 291 290 290 290 289 289 290 290 288 288 288 288 288 288 287 287 287
285 283 281 288 286 284 285 284 286 286 283 278 277 280 288 291 294 294 293 293 291 290 290 291 292 291 290 289 289 288 288 288 288 288 288 287 287 287 287 287 287 287 286 286
288 283 273 280 288 291 288 286 287 279 278 282 282 282 287 287 290 295 294 294 293 293 293 293 291 289 288 288 288 287 287 287 287 288 287 287 287 286 286 285 285 286 285 285
288 282 269 272 282 289 285 288 289 288 286 281 279 282 288 287 291 294 295 296 295 293 291 289 288 287 287 287 287 287 287 287 287 287 286 286 286 286 285 284 285 285 284 283
290 283 276 272 279 284 282 284 287 287 280 281 282 283 285 286 289 292 292 293 291 289 288 288 287 287 287 287 287 286 287 287 287 287 286 285 285 285 284 284 283 283 283 282
285 277 279 281 284 284 284 283 285 284 284 280 283 285 286 287 289 290 291 291 290 289 288 287 287 287 287 286 286 287 286 286 286 286 285 285 284 284 284 283 282 281 281 281
284 280 280 279 282 283 281 284 285 284 286 286 286 285 288 288 290 289 290 289 288 288 288 287 287 287 286 286 286 287 286 286 286 286 285 284 283 282 282 281 281 280 280 279
279 279 278 275 281 281 274 278 281 283 287 288 284 288 287 285 288 289 289 289 288 288 287 287 287 287 287 287 287 286 286 286 285 284 284 282 282 281 281 281 280 280 279 278
276 278 279 273 274 268 278 281 281 283 287 289 289 291 288 287 287 289 290 289 289 289 288 288 288 287 287 288 287 286 286 285 283 283 282 282 281 280 280 280 279 279 278 278
282 280 275 270 271 278 279 279 281 282 283 290 289 287 285 286 285 285 290 291 290 290 290 289 289 288 288 287 286 285 284 283 282 282 282 281 280 280 279 279 278 278 278 278
282 280 276 275 270 273 276 281 283 283 277 285 291 287 285 285 284 286 287 290 290 290 289 287 287 286 286 285 285 283 282 282 281 281 281 281 280 280 279 278 278 278 279 279
266 272 273 275 272 276 278 282 283 277 278 282 286 288 286 285 286 286 287 289 289 288 287 287 286 286 285 284 283 282 281 281 282 282 281 280 280 279 279 278 277 276 276 277
271 268 267 269 269 271 280 280 280 283 281 281 285 287 286 284 284 285 287 287 286 286 285 285 284 284 283 283 283 281 281 282 281 281 280 279 277 278 278 274 273 273 272 272
267 275 274 275 277 281 282 285 284 282 281 280 282 285 286 285 283 284 286 285 284 285 284 284 284 283 282 282 282 282 282 282 281 278 275 273 274 276 275 273 273 271 272 272
274 276 272 274 278 279 281 283 284 283 281 282 281 282 285 284 283 282 284 284 284 283 283 283 281 281 280 280 280 280 281 280 277 274 273 272 272 272 272 276 275 274 273 272
275 275 274 273 277 278 279 281 284 283 283 282 281 281 283 283 282 282 282 282 283 282 282 282 281 281 280 278 277 274 276 276 274 272 273 274 274 273 273 274 274 275 275 275
275 274 273 272 278 278 278 278 281 281 282 282 281 281 281 282 282 282 282 282 282 281 280 278 277 277 276 276 274 273 272 274 273 274 274 274 274 273 273 273 272 280 281 281
Wind_Speed
13 7 10 15 12 6 6 4 6 7 14 19 17 11 16 14 14 15 13 12 11 11 10 7 6 6 8 8 6 7 11 11 9 8 8 6 5 5 7 7 8 8 7 8
12 13 13 10 14 12 10 4 5 2 7 10 14 10 15 16 14 15 16 14 14 11 10 9 6 5 9 7 6 9 10 9 7 5 6 5 7 6 6 6 8 7 7 8
14 12 13 13 11 13 14 13 6 3 2 3 10 6 16 11 9 10 12 14 14 14 13 10 9 9 8 8 7 8 9 9 8 9 8 8 9 7 5 5 5 6 7 7
11 10 16 16 12 13 12 12 10 6 2 2 7 5 12 12 12 11 10 8 16 15 13 9 8 9 7 8 8 9 9 9 8 8 8 9 7 7 4 4 4 5 7 7
8 9 11 14 12 12 9 8 16 6 6 2 5 3 5 14 12 16 16 12 7 13 11 11 8 8 8 9 8 9 10 7 5 6 5 8 10 6 5 4 6 6 6 6
13 11 5 7 7 11 3 10 11 10 4 4 8 4 3 11 16 13 13 17 13 11 11 10 8 8 9 8 9 10 9 8 7 7 5 11 11 8 7 5 5 4 4 4
8 14 8 3 7 2 4 2 3 4 4 3 14 10 6 3 7 17 20 18 17 15 12 13 10 8 8 10 6 11 12 7 7 7 7 8 8 9 8 6 4 5 3 4
6 7 12 10 11 4 7 5 2 5 6 6 7 8 5 3 9 11 19 16 17 15 12 10 10 9 10 10 8 13 12 9 6 9 7 7 7 5 5 5 5 4 4 4
4 6 2 7 7 8 3 9 1 1 1 3 2 2 4 7 2 2 14 16 17 15 13 13 10 8 10 8 10 11 14 9 8 7 7 6 7 7 6 7 7 3 5 5
6 10 6 7 7 7 3 2 3 3 1 2 3 3 4 7 9 10 13 15 14 14 13 12 10 11 9 8 9 9 8 10 8 8 8 6 6 7 6 5 6 5 5 5
10 6 5 3 5 6 3 3 4 3 4 2 3 3 4 4 17 21 17 16 18 16 15 12 13 13 13 7 9 11 7 9 7 8 6 7 7 6 6 5 5 5 5 5
6 1 3 6 4 3 2 6 6 3 3 2 2 2 4 5 4 7 15 14 13 11 13 13 11 12 13 10 10 9 7 9 6 6 6 7 6 6 5 5 5 5 5 4
6 3 3 7 3 0 6 4 4 7 4 4 4 2 2 3 4 6 14 15 15 14 14 14 13 11 10 10 10 9 8 9 7 7 7 6 6 6 6 5 5 4 4 4
8 2 3 3 2 4 5 5 7 5 2 1 1 2 3 4 3 7 9 13 15 16 18 16 14 14 12 11 10 10 8 8 8 7 7 6 6 6 6 5 5 4 4 4
6 3 4 3 5 5 2 8 8 8 3 2 3 1 4 5 7 5 7 12 16 16 16 15 12 10 9 10 10 9 9 9 8 7 6 6 6 6 6 5 5 4 3 3
8 3 2 4 6 5 3 5 8 6 6 6 7 5 4 3 7 6 9 11 14 15 16 15 13 14 15 13 11 11 9 8 8 7 6 7 6 6 6 5 5 4 4 4
5 5 4 1 2 2 7 9 10 5 6 6 9 4 5 5 7 9 10 12 14 14 15 16 16 15 12 12 12 12 11 8 7 7 6 7 6 6 6 5 5 5 5 4
4 4 2 3 1 4 6 1 1 6 6 8 3 7 4 3 4 7 9 13 13 14 15 14 13 12 11 11 10 9 9 9 7 7 7 6 6 6 5 5 6 5 5 6
6 3 4 1 3 6 0 1 1 1 4 7 4 6 4 3 3 3 7 8 10 12 13 13 13 14 14 14 11 10 9 8 7 7 7 7 7 6 6 6 6 6 4 4
4 3 2 2 3 3 1 1 3 3 4 9 6 7 6 5 2 3 2 6 7 9 8 11 12 10 9 8 11 11 8 8 8 8 7 6 7 7 7 6 6 4 3 4
1 2 5 4 3 7 1 2 3 4 4 7 7 5 7 4 2 2 2 5 6 6 9 9 9 11 10 10 11 10 8 10 8 6 6 7 7 7 6 5 4 4 4 4
4 4 4 1 1 5 4 1 2 2 3 4 5 4 4 5 3 2 4 6 8 8 8 8 9 8 7 9 10 8 10 6 7 7 7 6 5 5 4 5 3 3 3 4
3 5 3 6 6 2 5 5 2 2 1 3 3 4 3 4 4 4 4 7 6 8 8 6 10 9 7 7 8 9 7 8 7 6 4 4 5 4 5 5 5 3 5 5
5 3 3 5 4 6 8 6 5 5 4 0 2 3 3 1 4 4 6 5 5 5 6 5 8 8 7 7 6 5 8 6 6 5 5 4 5 5 5 4 5 5 5 5
4 5 4 6 10 10 8 8 6 8 7 5 3 2 3 2 3 4 4 6 6 6 6 7 8 8 8 7 6 4 5 7 5 3 3 5 5 6 5 6 6 7 5 7
7 9 7 8 8 4 3 4 2 5 7 8 5 2 2 2 5 5 5 5 6 7 5 5 4 5 5 5 4 4 5 6 6 5 4 5 4 4 4 4 4 14 15 14
Wind_Direction
232 233 228 229 233 242 204 163 254 319 333 339 200 168 167 183 178 166 166 162 158 143 135 132 131 130 93 67 69 119 120 125 126 125 123 111 110 100 85 67 63 52 48 53
254 245 251 256 226 219 226 151 216 246 6 345 282 199 170 178 190 180 168 165 155 137 144 140 135 124 97 99 64 109 112 121 126 125 115 114 121 94 88 83 68 58 54 48
244 254 292 222 216 229 235 216 199 159 354 230 316 267 162 184 174 183 178 164 153 152 147 138 141 118 111 101 94 89 92 95 95 105 106 108 106 110 100 77 73 62 61 57
249 259 255 285 229 214 262 210 156 149 89 226 69 318 238 174 184 180 180 175 155 153 135 142 138 116 116 108 109 100 100 105 104 115 129 137 120 113 93 103 96 78 66 59
274 241 252 225 242 219 239 278 201 146 140 141 135 251 264 174 199 187 176 161 152 130 129 134 134 119 117 117 110 106 115 101 121 147 152 109 112 109 113 106 99 96 78 72
257 277 300 290 240 227 164 213 171 158 151 214 157 167 263 191 221 189 178 165 147 116 123 123 108 117 114 112 126 112 104 103 129 119 117 117 116 134 127 123 113 107 100 75
302 247 217 282 255 265 163 256 198 188 183 227 155 155 261 243 291 188 182 165 146 147 163 134 153 155 140 114 111 118 110 112 90 99 102 107 115 111 112 117 116 114 109 91
286 308 211 192 224 186 213 214 284 190 178 150 164 180 195 314 307 237 171 163 143 154 152 150 162 175 137 137 172 128 130 114 107 90 93 87 92 95 95 104 100 106 98 104
278 253 96 265 237 193 187 207 0 134 238 68 150 217 245 125 300 163 149 146 156 159 156 156 157 144 133 159 158 133 125 125 115 114 97 98 88 99 96 94 95 105 115 115
284 296 246 181 303 262 234 345 280 321 39 103 238 222 168 175 174 164 161 162 157 146 143 146 148 136 122 173 118 103 111 121 118 122 109 100 103 93 100 93 101 107 107 100
287 246 292 114 214 201 182 265 228 138 261 175 156 236 5 194 184 184 181 170 163 157 148 152 149 138 135 144 117 112 115 113 121 100 110 112 107 103 108 110 115 115 104 101
252 319 271 242 323 6 281 236 202 159 249 337 81 321 1 1 358 158 166 167 165 169 160 156 151 143 140 150 128 129 140 121 120 125 126 119 114 115 116 121 121 117 111 104
330 201 334 329 346 76 255 223 258 256 341 200 124 257 2 35 38 119 141 151 149 153 151 148 149 148 155 147 141 142 151 128 142 139 135 136 134 134 135 135 130 130 139 140
311 322 183 240 46 326 311 243 221 210 198 284 255 75 163 119 146 126 131 144 150 156 160 162 165 164 159 158 152 147 142 149 153 149 149 145 146 147 148 142 146 153 166 174
7 290 352 354 287 289 178 307 312 231 238 209 317 297 66 147 166 161 139 143 153 160 163 163 160 155 147 147 152 155 153 156 157 159 150 150 149 148 135 148 166 170 174 206
343 327 317 247 239 271 276 213 269 297 242 245 284 319 130 84 109 130 150 150 163 168 169 165 166 162 165 167 162 159 158 161 162 160 154 150 151 152 164 173 180 185 204 217
323 327 325 59 327 254 298 227 207 197 241 194 221 221 148 145 158 170 167 175 179 178 174 174 173 171 167 166 162 165 163 151 159 153 160 160 162 168 184 187 189 204 214 220
302 299 290 293 42 226 244 344 289 253 219 219 209 188 148 131 155 175 182 182 183 183 179 177 169 165 162 162 165 151 149 155 158 166 168 169 172 183 186 189 204 211 210 216
206 286 296 314 273 283 321 290 343 201 271 247 172 140 114 107 144 246 197 180 184 182 179 178 169 163 163 170 159 147 149 153 156 174 183 181 176 183 191 201 207 215 214 222
222 261 271 290 260 264 287 33 334 300 311 353 181 155 154 152 114 251 192 168 168 161 157 155 159 157 157 150 146 148 150 154 182 185 192 177 180 191 197 199 208 204 191 217
226 220 236 253 261 289 88 37 324 91 262 326 343 164 148 172 169 148 284 153 152 149 146 137 150 162 161 143 143 159 158 186 190 171 175 186 190 191 193 195 178 166 191 206
194 162 213 19 326 303 155 138 207 249 310 308 321 23 118 103 85 29 126 145 134 132 127 133 135 141 142 145 152 163 183 174 167 174 185 189 176 182 183 167 184 177 175 209
301 195 229 178 223 194 194 214 128 163 284 337 343 351 338 153 107 144 138 135 141 144 144 140 150 151 160 161 160 166 185 168 172 168 174 170 179 183 173 177 197 185 200 216
248 163 223 29 274 240 222 243 218 191 213 261 331 306 323 314 119 122 136 141 132 136 142 130 128 143 160 174 172 172 166 157 145 174 186 179 174 200 205 202 196 205 203 209
215 128 213 264 282 283 260 219 213 208 194 175 189 220 217 124 155 161 151 153 153 150 153 154 161 168 181 167 171 141 134 135 158 170 178 197 202 204 204 215 206 215 214 198
183 200 177 224 233 189 290 356 333 217 209 209 201 180 212 181 170 151 174 177 164 169 157 146 153 142 166 161 158 162 160 152 159 200 201 205 199 203 207 212 246 239 241 238